This is the latest recevied weather packets stored in our database for station/object OK1PMP-6. If no packets are shown the sender has not sent any weather packets the latest 10 day(s).
| Time | Temp. | Humidity | Pressure | Rain* | Wind** | Luminosity | Snow |
|---|---|---|---|---|---|---|---|
| 1777797703 | 21.67° C | 35% | 1021.1 hPa | 0 mm | - | 578 W/m² | - |
| 1777796803 | 21.67° C | 35% | 1021.2 hPa | 0 mm | - | 604 W/m² | - |
| 1777795908 | 20° C | 39% | 1021.3 hPa | 0 mm | - | 600 W/m² | - |
| 1777795003 | 19.44° C | 40% | 1021.3 hPa | 0 mm | - | 568 W/m² | - |
| 1777794108 | 18.89° C | 41% | 1021.4 hPa | 0 mm | - | 544 W/m² | - |
| 1777793204 | 17.78° C | 42% | 1021.5 hPa | 0 mm | - | 502 W/m² | - |
| 1777792294 | 17.22° C | 45% | 1021.3 hPa | 0 mm | - | 461 W/m² | - |
| 1777791375 | 16.67° C | 48% | 1021.2 hPa | 0 mm | - | 408 W/m² | - |
| 1777790475 | 15.56° C | 50% | 1021.5 hPa | 0 mm | - | 350 W/m² | - |
| 1777789574 | 15° C | 52% | 1021.3 hPa | 0 mm | - | 334 W/m² | - |
| 1777788698 | 14.44° C | 53% | 1021.5 hPa | 0 mm | - | 288 W/m² | - |
| 1777787773 | 13.33° C | 55% | 1021.4 hPa | 0 mm | - | 240 W/m² | - |
| 1777786873 | 10.56° C | 65% | 1021.5 hPa | 0 mm | - | 201 W/m² | - |
| 1777785974 | 8.89° C | 77% | 1021.3 hPa | 0 mm | - | 160 W/m² | - |
| 1777785061 | 7.78° C | 79% | 1021.4 hPa | 0 mm | - | 125 W/m² | - |
| 1777784161 | 5.56° C | 82% | 1021.3 hPa | 0 mm | - | 94 W/m² | - |
| 1777783262 | 4.44° C | 80% | 1021.2 hPa | 0 mm | - | 68 W/m² | - |
| 1777782361 | 4.44° C | 82% | 1021.3 hPa | 0 mm | - | 32 W/m² | - |
| 1777781460 | 4.44° C | 80% | 1021.2 hPa | 0 mm | - | 21 W/m² | - |
| 1777780561 | 3.89° C | 80% | 1021.2 hPa | 0 mm | - | 13 W/m² | - |
| 1777779665 | 3.89° C | 79% | 1021.3 hPa | - | - | - | - |
| 1777777443 | 3.89° C | 78% | 1020.8 hPa | 0 mm | - | 0 W/m² | - |
| 1777776537 | 3.89° C | 78% | 1021.1 hPa | 0 mm | - | 0 W/m² | - |
| 1777775635 | 4.44° C | 79% | 1021 hPa | 0 mm | - | 0 W/m² | - |
| 1777774734 | 4.44° C | 78% | 1021.3 hPa | 0 mm | - | 0 W/m² | - |
* Rain latest hour (hover to see other rain measurements)
** Current wind speed in m/s (hover to see current wind gust speed)